Showing default

COSMOS 2531, 43752

Orbit data source: Space-Track

COSMOS 2531, 43752 is a payload satellite owned by VVKO VKS (CIS) in LEO that was launched on Fri, 30 Nov 2018 UTC via an ROKOT launch vehicle from the Plesetsk Missile And Space Complex (PKMTR). Payloads include a variety of satellites, spacecraft, and rockets equipped with specific instruments for various scientific and technological missions. These include communications satellites like Starlink; space stations such as the ISS; scientific satellites like the Hubble; Earth observation satellites from companies like Planet Labs, Umbra, and HawkEye 360; GPS; miniature CubeSats for education and research; and military/defense satellites.

Loading next visibility...
COSMOS 2531 details
Identifier
43752, 2018-097B
Orbit
LEO
Last TLE update5 hours ago
Origin
Flag of CISVVKO VKS (CIS)
ManufacturerResehetnev ISS
MissionOperational Defense Communications
Bus & MotorSTRELA-3M, Unknown motor
Mass280 kg wet, 280 kg dry
Launch date (UTC)
2018-11-30 (6 years ago)
Launch vehicle
ROKOT
Launch site
Plesetsk Missile And Space Complex (PKMTR)
Object type
Payload
Rocket body
Debris
Shape & HBRCyl + 1 Ant, 7 m
Radar Cross Section1.583 m², Large (>1 m²)

Expand to show TLE details & history

TLE from 5 hours ago
0 COSMOS 2531
1 43752U 18097B   24348.15245684  .00000055  00000-0  32543-3 0  9992
2 43752  82.5189 205.1547 0016566 173.3677 186.7625 12.42902072273936
Epoch: 2024-12-13T03:39Z
Definitive object data (Epoch: 2024-12-13T03:39:32.27Z)
Latitude-0.00005°
Longitude67.9477°
Altitude1,509.978 km
Speed7.104 km/s
True Right ascension13h 40m 37s
True Declination0° 00' 00"
Sunlit
Object was in daylight at TLE epoch
Visualization TLE readout
Latitude44.19836°
Longitude-119.47108°
Altitude1,490.48 km
Speed7.127 km/s
Apparent Right ascension22h 15m 59s
Apparent Declination11° 11' 17"
Sunlit
Object is in daylight
Visualization observer readout
Local Sidereal Time06:44:31
Azimuth304.066° NW
Elevation-19.252°
Doppler factor1
Orbital elements
Apogee altitude1,504.713 km
Perigee altitude1,478.638 km
Semi-major axis7,869.812 km
Eccentricity0.0016566
Inclination82.5189°
RAAN205.1547°
Arg. of periapsis173.3677°
True anomaly186.74019°
Mean anomaly186.7625°
Eccentric anomaly186.75134°
Mean motion3.10883 °/min
BSTAR0.00032543
Orbital period115.8 mins
Loading maneuver chart data...
Loading historical data...
Loading historical data...
Loading historical data...
Loading historical data...
Loading historical data...
Loading historical data...
Loading historical data...
Other satellites on launch #97 in the year 2018 (2018-11-30 UTC)

COSMOS 2531 Visibility forecast

Observer location: undefined°, undefined

Span
Click to sort rows by Start time (UTC) header in descending order
Start Az.
Max El. time (UTC)
Max El. Az.
Max El.
End time (UTC)
End Az.
8 mins2024-12-13 13:28:57.661Z102.643° ESE2024-12-13 13:32:57.661Z73.359° E14.896°2024-12-13 13:36:57.661Z45.282° ENE
15 mins2024-12-13 15:20:57.661Z181.529° SSW2024-12-13 15:27:57.661Z97.808° ESE44.853°2024-12-13 15:35:57.661Z9.214° NNE
10 mins2024-12-13 17:20:57.661Z257.703° W2024-12-13 17:25:57.661Z296.545° NW19.123°2024-12-13 17:30:57.661Z335.043° NNW
14 mins2024-12-14 01:31:57.661Z9.723° NNE2024-12-14 01:38:57.661Z75.963° E32.859°2024-12-14 01:45:57.661Z138.16° SSE
14 mins2024-12-14 03:28:57.661Z335.441° NNW2024-12-14 03:35:57.661Z266.256° W34.228°2024-12-14 03:42:57.661Z207.04° SW
|